{"data":{"norad_id":66096,"intl_designator":"2025-236L","name":"STARLINK-34386","alt_names":[],"object_type":"PAYLOAD","status":"ACTIVE","operator":null,"country":"US","launch_date":"2025-10-19","launch_site_code":"AFWTR","launch_vehicle":null,"mission":null,"orbit_class":"UNKNOWN","rcs_meters":null,"size_class":null,"mass_kg":null,"dimensions":null,"purposes":["comms"],"wikipedia_slug":null,"has_3d_model":false,"image_url":null,"decayed_at":null,"tle_current":{"epoch":"2026-05-25T03:27:55.844640Z","epoch_age_seconds":59009,"freshness":"FRESH","line1":"1 66096U 25236L   26145.14439635  .00009610  00000+0  33619-3 0  9998","line2":"2 66096  53.1602 108.4967 0001186  82.7488 277.3647 15.30198600 34651","mean_motion":15.301986,"eccentricity":0.0001186,"inclination_deg":53.1602,"raan_deg":108.4967,"arg_perigee_deg":82.7488,"mean_anomaly_deg":277.3647,"bstar":0.00033619,"rev_number":3465,"period_min":94.105431804734,"perigee_km":474.40644151896,"apogee_km":476.03205762136,"semimajor_km":6853.3562495702,"source":"CELESTRAK","updated_at":"2026-05-25T13:38:21.028888Z"}}}